Regional Weather Roundup
Issued by NWS Sterling, VA

Home | Current Version | Previous Version | Graphics & Text | Print | Product List | Glossary On
Versions: 1 2 3 4 5 6 7 8 9 10 11 12 13 14 15 16 17 18 19 20 21 22 23 24 25 26 27 28
000
ASUS41 KLWX 211911
RWRLWX

REGIONAL WEATHER ROUNDUP
NATIONAL WEATHER SERVICE BALTIMORE MD/WASHINGTON DC
300 PM EDT FRI JUL 21 2017

Note: "FAIR" indicates few or no clouds below 12,000 feet
with no significant weather and/or obstructions to visibility.
 TC=TEMPERATURE CELSIUS

 * =Non NWS site. Station does not report precipitation (e.g. rain,
    snow, etc.), thunder, or fog.

DCZ001-MDZ009-015-VAZ040>042-051-053>054-212000-
WASHINGTON METRO

CITY           SKY/WX    TMP DP  RH WIND       PRES   REMARKS
WASHINGTON NAT CLOUDY    93  73  52 CALM      29.92F HX 102
DULLES         CLOUDY    90  71  53 W7        29.94F HX  96
ANDREWS AFB    CLOUDY    95  70  44 SW7       29.92F HX 101
FT BELVOIR     CLOUDY    95  69  41 NW10      29.92F HX 100
QUANTICO       CLOUDY    93  76  57 S5        29.93F HX 105
COLLEGE PARK*  CLOUDY    93  67  42 W9        29.91F HX  97
LEESBURG*      CLOUDY    93  77  59 SW8       29.96R HX 107
MANASSAS*      MOSUNNY   91  73  55 W8        29.94F HX  99
GAITHERSBURG*  CLOUDY    90  72  55 VRB3      29.96S HX  97

$$

MDZ006>007-011-014-212000-
BALTIMORE METRO

CITY           SKY/WX    TMP DP  RH WIND       PRES   REMARKS
BWI AIRPORT    CLOUDY    93  71  48 S7        29.91F HX 100
MD SCIENCE CTR   N/A     92  71  50 MISG      29.92F HX  98
MARTIN STATE   PTSUNNY   91  73  55 E7        29.93F HX 100
ANNAPOLIS      CLOUDY    87  75  67 SE8       29.92F HX  96
FORT MEADE*      N/A     91  68  46 CALM      29.94F HX  95

$$

MDZ012-015-019>023-212000-
MARYLAND EASTERN SHORE

CITY           SKY/WX    TMP DP  RH WIND       PRES   REMARKS
OCEAN CITY     CLOUDY    84  74  71 SE7       29.94S HX  91
SALISBURY      NOT AVBL
BAY BRIDGE AP* MOSUNNY   91  70  49 NW5       29.92F HX  97
CAMBRIDGE*     SUNNY     91  73  55 CALM      29.92F HX 100
EASTON*        PTSUNNY   93  70  46 CALM      29.95F HX  99

$$

MDZ017>025-212000-
SOUTHERN MARYLAND

CITY           SKY/WX    TMP DP  RH WIND       PRES   REMARKS
PATUXENT RIVER CLOUDY    91  72  53 NE7       29.92F HX  98
ST INIGOES     MOSUNNY   91  75  59 S5        29.92F HX 101
LEONARDTOWN*   CLOUDY   N/A N/A N/A SE3       29.94F

$$

MDZ003>005-212000-
NORTH CENTRAL MARYLAND

CITY           SKY/WX    TMP DP  RH WIND       PRES   REMARKS
FREDERICK*     MOSUNNY   93  64  38 NW6       29.96F HX  95
HAGERSTOWN APT MOSUNNY   93  71  48 VRB5      29.95S HX 100
WESTMINSTER*   CLOUDY    90  72  55 W3        29.96S HX  96

$$

MDZ501>502-212000-
WESTERN MARYLAND

CITY           SKY/WX    TMP DP  RH WIND       PRES   REMARKS
OAKLAND*       CLOUDY    73  68  83 W7        30.08S
CUMBERLAND*    MOSUNNY   90  70  51 S15       29.98F HX  95

$$

VAZ025>031-212000-
SHENANDOAH VALLEY

CITY           SKY/WX    TMP DP  RH WIND       PRES   REMARKS
WINCHESTER*    PTSUNNY   86  72  62 E8        29.96S HX  92
FRONT ROYAL*   MOSUNNY   93  70  46 S7        29.94F HX  99
LURAY*         SUNNY     91  68  46 CALM      29.97S HX  95
NEW MARKET*    MOSUNNY   92  68  45 S3        29.94F HX  96
STAUNTON*      MOSUNNY   92  70  47 W8        30.02S HX  98
WAYNESBORO*    SUNNY     90  72  54 SW5       30.02F HX  97

$$

WVZ021-048>050-054>055-212000-
EASTERN WEST VIRGINIA PANHANDLE

CITY           SKY/WX    TMP DP  RH WIND       PRES   REMARKS
MARTINSBURG    PTSUNNY   91  68  46 W6        29.93F HX  95
PETERSBURG*    CLOUDY    78  72  82 S5        30.01R

$$

VAZ036>039-050-212000-
CENTRAL FOOTHILLS

CITY           SKY/WX    TMP DP  RH WIND       PRES   REMARKS
CHARLOTTESVILL SUNNY     98  68  37 VRB3      29.95F HX 103
CULPEPER*      MOSUNNY   94  73  48 CALM      29.94F HX 103
ORANGE*        SUNNY     95  68  41 SE3       29.94F HX  99
GORDONSVILLE*  MOSUNNY   97  69  39 CALM      29.94F HX 102
WARRENTON*     MOSUNNY   94  66  39 CALM      29.94S HX  97

$$

VAZ055>057-212000-
NORTH AND CENTRAL PIEDMONT

CITY           SKY/WX    TMP DP  RH WIND       PRES   REMARKS
FREDERICKSBRG* MOSUNNY   93  73  50 CALM      29.92F HX 102
STAFFORD*      MOSUNNY   93  69  44 W3        29.97F HX  98

$$

NCZ024-NYZ072-PAZ021-071-VAZ022-071-212000-
OTHER REGIONAL OBSERVATIONS

CITY           SKY/WX    TMP DP  RH WIND       PRES   REMARKS
NEW YORK CITY  MOSUNNY   90  64  42 VRB3      29.89F HX  91
PHILADELPHIA   CLOUDY    92  67  43 W10       29.91S HX  95
PITTSBURGH     CLOUDY    84  72  67 SE3       29.98F
ROANOKE        PTSUNNY   95  69  42 NW8G20    30.02F HX 100
RICHMOND       CLOUDY    97  68  38 W6        29.93F HX 102
RALEIGH        CLOUDY    96  67  38 NW7       29.98F HX 100

$$

ANZ530>537-212000-
MARINE OBSERVATIONS

STATION/POSITION TIME  TEMP    WIND        PRES
                       AIR SEA DIR/SP/G
                 (UTC) (F)     (DEG/KT/KT) (MB)
THOMAS PT LIGHT  1900   86 82  170/  8/  9   N/A
BALT KEY BRIDGE  1848   87     120/ 12/ 12 1012.9F
COVE POINT       1848   87      50/  1/  2 1014.0F
LEWISETTA        1848   87 86   90/  3/  4 1013.5F
SOLOMONS ISLAND  1848   87 84  110/  5/  5   N/A
PINEY POINT      1842          330/  6/  7   N/A

$$





USA.gov is the U.S. government's official web portal to all federal, state and local government web resources and services.